Wright-Patt AFB, OH

1:18 AM EST on November 22, 2017 (GMT -0500)
Wright-Patterson Air Force Base

Weather History for KFFO - November, 2012

Change the Weather History Date:

Friday, November 9, 2012

  Actual Average Record
Temperature  
Mean Temperature 44 °F -  
Max Temperature 59 °F 51 °F 75 °F (1999)
Min Temperature 28 °F 34 °F 21 °F (2003)
Degree Days  
Heating Degree Days 22    
Moisture  
Dew Point 33 °F    
Average Humidity 63    
Maximum Humidity 88    
Minimum Humidity 39    
Precipitation  
Precipitation 0.00 in - - ()
Sea Level Pressure  
Sea Level Pressure 30.19 in    
Wind  
Wind Speed 4 mph (South)    
Max Wind Speed 12 mph    
Max Gust Speed -    
Visibility 10 miles    
Events      
Averages and records for this station are not official NWS values.
T = Trace of Precipitation, MM = Missing Value Source: NWS Daily Summary

Daily Weather History Graph

Daily Weather History Graph

Search for Another Location

Airport or City:

Trip Planner

Search our weather history database for the weather conditions in past years. The results will help you decide how hot, cold, wet, or windy it might be!

Date:

Astronomy

Nov. 09, 2012 Rise Set
Actual Time 7:14 AM EST 5:25 PM EST
Civil Twilight 6:46 AM EST 5:53 PM EST
Nautical Twilight 6:13 AM EST 6:25 PM EST
Astronomical Twilight 5:41 AM EST 6:57 PM EST
Moon 2:12 AM EST (11/9) 2:37 PM EST (11/9)
Length of Visible Light 11h 07m
Length of Day
10h 10m
Waning Crescent, 23% of the Moon is Illuminated
Nov 9
Waning Crescent
Nov 13
New
Nov 20
First Quarter
Nov 28
Full
Dec 6
Last Quarter

Hourly Weather History & Observations

Time (EST) Temp. Windchill Dew Point Humidity Pressure Visibility Wind Dir Wind Speed Gust Speed Precip Events Conditions
12:55 AM 32.7 °F - 28.9 °F 86% 30.19 in 10.0 mi Calm Calm - N/A   Clear
1:55 AM 31.3 °F - 26.8 °F 83% 30.20 in 10.0 mi Calm Calm - N/A   Clear
2:55 AM 31.3 °F - 27.3 °F 85% 30.21 in 10.0 mi Calm Calm - N/A   Clear
4:55 AM 30.4 °F - 27.3 °F 88% 30.23 in 10.0 mi Calm Calm - N/A   Clear
5:55 AM 28.2 °F - 25.2 °F 88% 30.25 in 10.0 mi Calm Calm - N/A   Clear
6:55 AM 29.3 °F - 25.9 °F 87% 30.26 in 10.0 mi Calm Calm - N/A   Clear
7:55 AM 28.9 °F - 25.5 °F 87% 30.27 in 10.0 mi Calm Calm - N/A   Clear
8:55 AM 36.1 °F 33.5 °F 30.7 °F 81% 30.27 in 10.0 mi SE 3.5 mph - N/A   Clear
9:55 AM 42.8 °F 41.1 °F 33.4 °F 70% 30.26 in 10.0 mi SSE 3.5 mph - N/A   Clear
10:55 AM 49.3 °F - 36.3 °F 61% 30.26 in 10.0 mi South 6.9 mph - N/A   Clear
11:55 AM 53.8 °F - 37.8 °F 55% 30.23 in 10.0 mi SSW 9.2 mph - N/A   Clear
12:55 PM 55.6 °F - 37.9 °F 52% 30.19 in 10.0 mi South 10.4 mph - N/A   Clear
1:55 PM 57.4 °F - 36.1 °F 45% 30.17 in 10.0 mi South 10.4 mph - N/A   Clear
2:55 PM 58.8 °F - 34.5 °F 40% 30.16 in 10.0 mi South 9.2 mph - N/A   Clear
3:00 PM 59.0 °F - 33.8 °F 39% 30.13 in 10.0 mi South 11.5 mph - N/A   Clear
3:55 PM 58.6 °F - 33.6 °F 39% 30.14 in 10.0 mi South 11.5 mph - N/A   Clear
4:55 PM 56.5 °F - 34.2 °F 43% 30.15 in 10.0 mi South 10.4 mph - N/A   Partly Cloudy
5:55 PM 53.8 °F - 34.9 °F 49% 30.15 in 10.0 mi SSE 5.8 mph - N/A   Mostly Cloudy
6:55 PM 51.3 °F - 35.1 °F 54% 30.15 in 10.0 mi SE 8.1 mph - N/A   Scattered Clouds
7:55 PM 50.7 °F - 35.2 °F 55% 30.15 in 10.0 mi SSE 6.9 mph - N/A   Scattered Clouds
8:55 PM 51.8 °F - 35.8 °F 54% 30.14 in 10.0 mi SSE 8.1 mph - N/A   Overcast
9:55 PM 51.1 °F - 36.1 °F 57% 30.14 in 10.0 mi South 8.1 mph - N/A   Overcast
10:55 PM 51.4 °F - 36.0 °F 56% 30.14 in 10.0 mi South 6.9 mph - N/A   Mostly Cloudy
11:55 PM 51.3 °F - 36.3 °F 57% 30.14 in 10.0 mi SSE 5.8 mph - N/A   Overcast